カタログに戻る

STARLINK-35679

運用中通信VLEO
NORAD 66408·PAYLOAD·🇺🇸 United States

打ち上げ Nov 8, 2025 から Cape Canaveral Space Force Station

Loading…

次のパス (今後24時間)

TLE

最新Source: CelesTrak SupGP

元期: Sep 15, 2026, 03:35 UTC

1 66408C 25257AE  26258.14979167 -.00011643  00000+0 -34408-3 0  2588
2 66408  53.1596  52.6797 0001122  86.9980 193.7695 15.34389882    19

AllMySatでSTARLINK-35679をリアルタイム追跡

Download on the App Store